GW2525 Weather Reports


Display with metric or nautical units.
time (UTC)temp
F
wind
direction
speed
MPH
gust
MPH
rain 1hr
in
rain 24hr
in
rain mn
in
humidity
%
barometer
mb
20260510053503 49 60 1.0 3.0 0.00 0.59 0.03 97 1009.7
20260510053004 49 60 1.0 2.0 0.00 0.59 0.03 96 1009.6
20260510052714 48 60 1.0 2.0 0.00 0.59 0.03 96 1009.7
20260510052212 48 59 1.0 3.0 0.00 0.59 0.03 96 1009.7
20260510051504 48 331 2.0 6.0 0.00 0.59 0.03 95 1009.6
20260510051214 48 272 2.0 6.0 0.00 0.59 0.03 95 1009.6
20260510050504 49 207 1.0 3.0 0.00 0.59 0.03 95 1009.5
20260510050005 49 209 1.0 3.0 0.00 0.59 0.03 95 1009.5
20260510045504 49 134 2.0 7.0 0.00 0.59 0.03 95 1009.4
20260510045215 49 111 3.0 7.0 0.00 0.59 0.03 95 1009.5
20260510044713 49 101 3.0 7.0 0.00 0.59 0.03 94 1009.4
20260510044215 49 103 2.0 7.0 0.00 0.59 0.03 94 1009.3
20260510043503 49 127 5.0 12.0 0.00 0.59 0.03 93 1009.3
20260510043004 50 118 5.0 12.0 0.00 0.59 0.03 93 1009.3
20260510042504 50 106 4.0 10.0 0.00 0.59 0.03 92 1009.3
20260510042005 50 95 4.0 10.0 0.00 0.59 0.03 91 1009.3
20260510041504 51 92 4.0 10.0 0.00 0.59 0.03 90 1009.2
20260510041214 51 121 4.0 9.0 0.00 0.59 0.03 90 1009.2
20260510040503 52 289 5.0 12.0 0.00 0.59 0.03 87 1009.3
20260510040004 51 289 4.0 12.0 0.00 0.59 0.03 91 1009.4
20260510035503 50 325 2.0 10.0 0.00 0.59 0.03 91 1009.4
20260510035003 51 285 1.0 6.0 0.00 0.59 0.03 90 1009.4
20260510034503 51 19 2.0 7.0 0.00 0.59 0.03 89 1009.4
20260510034003 52 5 3.0 8.0 0.00 0.59 0.03 87 1009.6
20260510033713 53 316 3.0 15.0 0.00 0.59 0.03 87 1009.6
20260510033004 53 314 5.0 15.0 0.00 0.59 0.03 88 1009.5
20260510032504 51 328 4.0 13.0 0.00 0.59 0.03 93 1009.6
20260510032004 50 18 3.0 8.0 0.00 0.59 0.03 94 1009.8
20260510031503 50 16 3.0 8.0 0.00 0.59 0.03 95 1009.7
20260510031004 50 341 2.0 4.0 0.00 0.59 0.03 94 1009.9
20260510030503 49 287 1.0 3.0 0.00 0.59 0.03 94 1009.9
20260510030214 50 288 1.0 3.0 0.00 0.59 0.03 93 1009.9
20260510025503 50 303 1.0 6.0 0.00 0.59 0.03 91 1009.9
20260510025003 52 268 3.0 12.0 0.00 0.59 0.03 90 1010.0
20260510024504 53 249 7.0 18.0 0.00 0.59 0.03 89 1010.0
20260510024003 54 252 12.0 26.0 0.00 0.59 0.03 88 1010.0
20260510023713 54 252 12.0 26.0 0.00 0.59 0.03 89 1010.0
20260510023004 52 275 10.0 19.0 0.00 0.59 0.03 96 1010.0
20260510022504 51 289 5.0 18.0 0.00 0.59 0.03 99 1009.9
20260510022214 50 273 3.0 12.0 0.00 0.59 0.03 99 1009.9
20260510021503 48 289 4.0 13.0 0.00 0.59 0.03 98 1010.0
20260510021004 48 9 2.0 7.0 0.00 0.59 0.03 98 1010.2
20260510020714 48 327 2.0 5.0 0.00 0.59 0.03 98 1010.2
20260510020004 48 261 2.0 7.0 0.00 0.59 0.03 98 1010.3
20260510015503 47 254 0.0 7.0 0.00 0.59 0.03 98 1010.3
20260510015003 48 187 1.0 3.0 0.00 0.59 0.03 97 1010.0
20260510014714 48 145 1.0 3.0 0.00 0.59 0.03 98 1010.1
20260510014003 48 103 1.0 2.0 0.00 0.59 0.03 98 1010.3
20260510013503 48 101 1.0 2.0 0.00 0.59 0.03 98 1010.3
20260510013004 48 112 1.0 3.0 0.00 0.59 0.03 98 1010.3
20260510012503 48 124 1.0 3.0 0.00 0.59 0.03 98 1010.3
20260510012003 49 117 1.0 4.0 0.00 0.59 0.03 98 1010.4
20260510011503 49 219 1.0 4.0 0.00 0.59 0.03 98 1010.6
20260510011213 49 271 1.0 4.0 0.00 0.59 0.03 98 1010.7
20260510010504 49 257 1.0 2.0 0.00 0.59 0.03 97 1010.7
20260510010004 49 257 1.0 2.0 0.00 0.59 0.03 98 1010.7
20260510005503 49 257 1.0 2.0 0.00 0.59 0.03 97 1010.7
20260510005003 49 268 2.0 4.0 0.00 0.59 0.03 97 1010.7
20260510004503 50 289 1.0 4.0 0.00 0.59 0.03 97 1010.8
20260510004003 50 307 1.0 3.0 0.00 0.59 0.03 98 1010.9
20260510003503 50 309 0.0 3.0 0.00 0.59 0.03 97 1011.0
20260510003004 50 315 0.0 2.0 0.00 0.59 0.03 97 1011.2
20260510002503 50 315 0.0 2.0 0.00 0.59 0.03 97 1011.2
20260510002003 50 316 1.0 2.0 0.01 0.59 0.03 97 1011.3
20260510001714 50 316 1.0 2.0 0.01 0.59 0.03 97 1011.3
20260510001213 51 317 0.0 2.0 0.01 0.59 0.03 97 1011.4
20260510000504 51 317 0.0 1.0 0.01 0.59 0.03 97 1011.4
20260510000004 51 317 0.0 1.0 0.01 0.59 0.03 97 1011.5
20260509235503 51 317 0.0 1.0 0.01 0.59 0.03 97 1011.6
20260509235003 51 317 0.0 1.0 0.01 0.59 0.03 97 1011.6
20260509234504 51 315 0.0 3.0 0.01 0.59 0.03 98 1011.8
20260509234003 51 317 1.0 4.0 0.01 0.59 0.03 97 1011.9
20260509233503 51 322 1.0 4.0 0.01 0.59 0.03 97 1011.9
20260509233004 52 325 0.0 3.0 0.01 0.59 0.03 97 1012.0
20260509232503 52 325 0.0 3.0 0.02 0.59 0.03 97 1012.2
20260509232004 52 310 0.0 3.0 0.01 0.58 0.02 97 1012.3
20260509231503 52 293 0.0 2.0 0.01 0.58 0.02 97 1012.3
20260509231003 52 293 1.0 4.0 0.01 0.58 0.02 98 1012.3
20260509230503 52 292 1.0 4.0 0.02 0.58 0.02 97 1012.3
20260509230004 52 292 1.0 4.0 0.02 0.58 0.02 98 1012.4
20260509225503 52 292 2.0 4.0 0.02 0.58 0.02 97 1012.4
20260509225003 52 294 1.0 4.0 0.03 0.58 0.02 97 1012.5
20260509224503 52 296 1.0 3.0 0.03 0.58 0.02 97 1012.5
20260509224004 52 296 1.0 2.0 0.03 0.58 0.02 97 1012.5
20260509223503 52 299 1.0 4.0 0.03 0.58 0.02 97 1012.5
20260509223004 52 308 1.0 4.0 0.03 0.58 0.02 97 1012.6
20260509222503 52 321 0.0 1.0 0.02 0.57 0.02 97 1012.6
20260509222004 52 302 0.0 2.0 0.02 0.57 0.02 97 1012.5
20260509221504 52 289 1.0 3.0 0.02 0.57 0.02 97 1012.4
20260509221003 52 284 2.0 4.0 0.02 0.57 0.02 97 1012.4
20260509220503 52 292 2.0 4.0 0.02 0.57 0.01 97 1012.4
20260509220006 53 309 0.0 4.0 0.01 0.56 0.00 97 1012.4
20260509215713 53 328 0.0 2.0 0.01 0.56 0.56 97 1012.3
20260509215003 53 0 0.0 0.0 0.00 0.55 0.55 97 1012.3
20260509214504 53 0 0.0 0.0 0.00 0.55 0.55 97 1012.3
20260509214004 53 0 0.0 0.0 0.00 0.55 0.55 97 1012.2
20260509213503 53 0 0.0 0.0 0.00 0.55 0.55 97 1012.2
20260509213003 53 32 0.0 1.0 0.00 0.55 0.55 97 1012.1
20260509212503 53 32 0.0 1.0 0.00 0.55 0.55 97 1012.0
20260509212003 53 32 0.0 1.0 0.00 0.55 0.55 97 1012.0
20260509211503 53 32 0.0 1.0 0.00 0.55 0.55 97 1012.0
20260509211003 53 33 1.0 3.0 0.00 0.55 0.55 97 1011.9
20260509210503 53 24 2.0 4.0 0.01 0.55 0.55 97 1011.9
20260509210004 53 19 2.0 4.0 0.01 0.55 0.55 97 1011.8
20260509205503 53 8 1.0 4.0 0.02 0.55 0.55 97 1011.8
20260509205003 53 358 1.0 3.0 0.02 0.55 0.55 97 1011.8
20260509204504 53 23 1.0 3.0 0.02 0.55 0.55 97 1011.7
20260509204213 53 296 1.0 5.0 0.02 0.55 0.55 97 1011.8
20260509203503 53 276 1.0 5.0 0.02 0.55 0.55 97 1011.6
20260509203004 53 283 0.0 3.0 0.02 0.55 0.55 97 1011.4
20260509202503 53 285 1.0 3.0 0.03 0.55 0.55 97 1011.3
20260509202004 53 284 1.0 3.0 0.03 0.55 0.55 97 1011.3
20260509201503 53 282 1.0 3.0 0.03 0.55 0.55 97 1011.2
20260509201003 53 281 1.0 3.0 0.03 0.55 0.55 97 1011.1
20260509200714 53 280 1.0 3.0 0.03 0.54 0.54 97 1011.0
20260509200004 53 280 2.0 3.0 0.03 0.54 0.54 97 1011.0
20260509195503 53 280 1.0 3.0 0.02 0.54 0.54 97 1011.0
20260509195213 53 280 1.0 3.0 0.02 0.54 0.54 97 1010.9
20260509194504 53 280 0.0 1.0 0.03 0.54 0.54 97 1010.9
20260509194003 53 280 0.0 1.0 0.02 0.53 0.53 97 1010.8
20260509193714 53 280 0.0 1.0 0.03 0.53 0.53 97 1010.8
20260509193215 53 282 0.0 2.0 0.04 0.53 0.53 97 1010.7
20260509192714 53 283 0.0 2.0 0.04 0.52 0.53 97 1010.5
20260509192213 53 286 0.0 1.0 0.05 0.52 0.52 97 1010.4
20260509191504 53 286 1.0 4.0 0.06 0.52 0.52 97 1010.2
20260509191213 53 286 1.0 4.0 0.08 0.52 0.52 97 1010.1
20260509190503 53 286 2.0 4.0 0.10 0.51 0.51 97 1009.9
20260509190004 53 288 2.0 4.0 0.13 0.51 0.51 97 1009.9
20260509185503 53 290 3.0 5.0 0.16 0.51 0.51 97 1009.8
20260509185003 53 289 3.0 5.0 0.17 0.50 0.50 97 1009.8
20260509184504 53 286 4.0 6.0 0.19 0.50 0.50 96 1009.9
20260509184003 53 271 3.0 6.0 0.21 0.50 0.50 96 1009.9
20260509183503 53 241 2.0 5.0 0.21 0.50 0.50 96 1009.9
20260509183004 54 227 2.0 3.0 0.22 0.49 0.49 96 1010.1
20260509182714 54 226 2.0 3.0 0.22 0.48 0.49 96 1010.0
20260509182004 54 223 1.0 3.0 0.24 0.47 0.47 96 1010.3
20260509181503 54 221 0.0 3.0 0.24 0.46 0.46 96 1010.3
20260509181215 54 0 0.0 0.0 0.23 0.44 0.44 96 1010.4
20260509180503 54 0 0.0 0.0 0.23 0.41 0.41 96 1010.6
20260509180004 54 0 0.0 0.0 0.23 0.38 0.38 95 1010.8
20260509175503 54 0 0.0 0.0 0.23 0.35 0.35 95 1010.9
20260509175003 54 122 0.0 1.0 0.24 0.34 0.34 95 1010.9
20260509174503 54 122 0.0 1.0 0.24 0.31 0.31 95 1010.9
20260509174003 54 122 1.0 2.0 0.24 0.29 0.29 95 1010.9
20260509173503 54 122 2.0 4.0 0.24 0.28 0.28 95 1011.0
20260509173214 54 120 2.0 4.0 0.24 0.27 0.27 95 1011.0
20260509172503 54 109 1.0 4.0 0.24 0.25 0.25 95 1011.1
20260509172003 55 105 1.0 3.0 0.22 0.24 0.24 95 1011.2
20260509171503 55 105 0.0 2.0 0.20 0.22 0.22 95 1011.2
20260509171214 55 105 0.0 1.0 0.20 0.21 0.21 95 1011.1
20260509170713 55 105 0.0 3.0 0.17 0.19 0.20 95 1011.1
20260509170004 55 105 1.0 3.0 0.13 0.15 0.15 94 1011.3
20260509165503 56 99 2.0 6.0 0.12 0.13 0.13 95 1011.4
20260509165003 56 84 1.0 6.0 0.09 0.10 0.10 94 1011.5
20260509164504 56 331 0.0 2.0 0.06 0.07 0.07 94 1011.5
20260509164003 56 323 1.0 2.0 0.06 0.06 0.06 94 1011.4
20260509163503 56 324 1.0 2.0 0.04 0.04 0.04 94 1011.4
20260509163004 56 325 0.0 1.0 0.03 0.03 0.03 94 1011.4
20260509162503 56 306 1.0 4.0 0.02 0.02 0.02 94 1011.1
20260509162004 56 295 3.0 6.0 0.02 0.02 0.02 94 1011.0
20260509161503 56 274 3.0 7.0 0.02 0.02 0.02 93 1010.6
20260509161003 56 216 2.0 7.0 0.02 0.02 0.02 93 1010.4
20260509160504 57 132 1.0 3.0 0.02 0.02 0.02 92 1010.4
20260509160004 57 103 0.0 1.0 0.02 0.02 0.02 92 1010.3
20260509155503 57 103 0.0 1.0 0.01 0.01 0.01 91 1010.1
20260509155004 57 103 0.0 1.0 0.01 0.01 0.01 91 1010.0
20260509154712 57 103 0.0 1.0 0.01 0.01 0.01 90 1010.1
20260509154003 57 103 0.0 2.0 0.00 0.00 0.00 90 1010.1
20260509153503 57 103 0.0 2.0 0.00 0.00 0.00 89 1010.4
20260509153004 57 103 0.0 1.0 0.00 0.00 0.00 89 1010.1
20260509152503 57 103 1.0 2.0 0.00 0.00 0.00 89 1010.2
20260509152003 57 103 1.0 2.0 0.00 0.00 0.00 89 1010.2
20260509151503 57 103 1.0 3.0 0.00 0.00 0.00 88 1010.4
20260509151003 57 104 2.0 6.0 0.00 0.00 0.00 88 1010.6
20260509150503 58 104 3.0 6.0 0.00 0.00 0.00 88 1010.9
20260509150004 58 110 3.0 6.0 0.00 0.00 0.00 86 1011.2
20260509145503 58 117 3.0 6.0 0.00 0.00 0.00 84 1011.4
20260509145003 58 115 3.0 6.0 0.00 0.00 0.00 83 1011.4
20260509144503 58 107 2.0 6.0 0.00 0.00 0.00 82 1011.5
20260509144004 58 95 1.0 4.0 0.00 0.00 0.00 82 1011.4
20260509143503 59 94 1.0 4.0 0.00 0.00 0.00 83 1011.3
20260509143004 58 94 2.0 4.0 0.00 0.00 0.00 81 1011.4
20260509142503 58 98 2.0 4.0 0.00 0.00 0.00 81 1011.5
20260509142003 58 105 2.0 4.0 0.00 0.00 0.00 83 1011.6
20260509141503 58 110 2.0 4.0 0.00 0.00 0.00 82 1011.6
20260509141004 58 114 2.0 4.0 0.00 0.00 0.00 83 1011.8
20260509140503 58 117 2.0 4.0 0.00 0.00 0.00 84 1011.9
20260509140005 58 118 1.0 3.0 0.00 0.00 0.00 85 1011.7
20260509135504 58 118 0.0 1.0 0.00 0.00 0.00 87 1011.7
20260509135003 58 118 0.0 1.0 0.00 0.00 0.00 89 1011.6
20260509134503 57 118 1.0 4.0 0.00 0.00 0.00 90 1011.6
20260509134003 57 123 2.0 4.0 0.00 0.00 0.00 91 1011.6
20260509133503 56 126 3.0 7.0 0.00 0.00 0.00 91 1011.7
20260509133215 56 123 3.0 7.0 0.00 0.00 0.00 91 1011.8
20260509132504 57 103 3.0 7.0 0.00 0.00 0.00 92 1011.8
20260509132003 56 108 2.0 7.0 0.00 0.00 0.00 91 1011.8
20260509131714 56 118 2.0 7.0 0.00 0.00 0.00 92 1011.8
20260509131213 56 117 1.0 3.0 0.00 0.00 0.00 92 1011.5
20260509130503 56 106 2.0 7.0 0.00 0.00 0.00 92 1011.7
20260509130004 56 116 4.0 10.0 0.00 0.00 0.00 91 1012.0
20260509125503 57 125 7.0 11.0 0.00 0.00 0.00 91 1012.1
20260509125213 57 125 7.0 13.0 0.00 0.00 0.00 90 1012.2
20260509124503 57 119 9.0 16.0 0.00 0.00 0.00 88 1012.3
20260509124214 58 114 8.0 16.0 0.00 0.00 0.00 86 1012.2
20260509123503 59 101 2.0 7.0 0.00 0.00 0.00 84 1012.1
20260509123004 59 98 1.0 3.0 0.00 0.00 0.00 84 1012.2
20260509122713 59 99 1.0 4.0 0.00 0.00 0.00 84 1012.3
20260509122003 59 99 3.0 7.0 0.00 0.00 0.00 84 1012.4
20260509121503 59 100 4.0 7.0 0.00 0.00 0.00 85 1012.4
20260509121003 59 104 3.0 7.0 0.00 0.00 0.00 84 1012.5
20260509120503 59 111 3.0 6.0 0.00 0.00 0.00 84 1012.5
20260509120004 59 122 3.0 7.0 0.00 0.00 0.00 83 1012.6
20260509115713 59 133 3.0 7.0 0.00 0.00 0.00 82 1012.7
20260509115003 59 151 3.0 7.0 0.00 0.00 0.00 81 1012.9
20260509114503 60 156 1.0 5.0 0.00 0.00 0.00 81 1012.8
20260509114214 60 157 0.0 5.0 0.00 0.00 0.00 81 1012.8
20260509113713 60 144 0.0 2.0 0.00 0.00 0.00 81 1012.6
20260509113004 60 144 1.0 3.0 0.00 0.00 0.00 81 1012.7
20260509112504 60 144 1.0 3.0 0.00 0.00 0.00 80 1012.8
20260509112214 60 144 1.0 3.0 0.00 0.00 0.00 80 1012.8
20260509111503 60 144 1.0 3.0 0.00 0.00 0.00 81 1012.8
20260509111004 60 144 1.0 3.0 0.00 0.00 0.00 81 1012.8
20260509110503 60 158 1.0 3.0 0.00 0.00 0.00 81 1012.9
20260509110005 59 180 1.0 3.0 0.00 0.00 0.00 81 1012.9
20260509105503 60 183 2.0 4.0 0.00 0.00 0.00 81 1012.9
20260509105003 59 188 2.0 4.0 0.00 0.00 0.00 81 1013.0
20260509104713 59 190 1.0 4.0 0.00 0.00 0.00 81 1012.9
20260509104004 59 192 1.0 3.0 0.00 0.00 0.00 81 1012.9
20260509103714 59 192 1.0 3.0 0.00 0.00 0.00 80 1013.0
20260509103004 59 0 0.0 0.0 0.00 0.00 0.00 80 1013.2
20260509102504 59 0 0.0 0.0 0.00 0.00 0.00 80 1013.2
20260509102003 59 0 0.0 0.0 0.00 0.00 0.00 80 1013.1
20260509101504 59 0 0.0 0.0 0.00 0.00 0.00 81 1013.1
20260509101003 59 0 0.0 0.0 0.00 0.00 0.00 81 1013.0
20260509100714 59 277 0.0 1.0 0.00 0.00 0.00 81 1013.0
20260509100005 59 277 1.0 4.0 0.00 0.00 0.00 82 1013.0
20260509095503 58 271 3.0 6.0 0.00 0.00 0.00 82 1012.9
20260509095213 58 266 3.0 7.0 0.00 0.00 0.00 82 1012.9
20260509094503 58 251 3.0 7.0 0.00 0.00 0.00 81 1012.8
20260509094004 58 253 4.0 7.0 0.00 0.00 0.00 81 1012.7
20260509093503 58 266 4.0 9.0 0.00 0.00 0.00 82 1012.7
20260509093004 58 278 4.0 9.0 0.00 0.00 0.00 82 1012.5
20260509092503 58 279 4.0 8.0 0.00 0.00 0.00 83 1012.5
20260509092003 58 266 4.0 8.0 0.00 0.00 0.00 83 1012.6
20260509091503 58 238 2.0 8.0 0.00 0.00 0.00 82 1012.7
20260509091003 59 168 1.0 4.0 0.00 0.00 0.00 83 1012.7
20260509090504 58 170 1.0 4.0 0.00 0.00 0.00 82 1012.7
20260509090004 59 173 0.0 4.0 0.00 0.00 0.00 82 1012.6
20260509085503 59 0 0.0 0.0 0.00 0.00 0.00 82 1012.5
20260509085004 59 0 0.0 0.0 0.00 0.00 0.00 81 1012.5
20260509084503 59 217 0.0 2.0 0.00 0.00 0.00 81 1012.4
20260509084003 59 225 1.0 2.0 0.00 0.00 0.00 81 1012.5
20260509083504 59 228 2.0 5.0 0.00 0.00 0.00 81 1012.5
20260509083004 58 239 3.0 5.0 0.00 0.00 0.00 81 1012.5
20260509082714 58 239 2.0 5.0 0.00 0.00 0.00 82 1012.6
20260509082213 58 247 2.0 4.0 0.00 0.00 0.00 84 1012.6
20260509081503 58 275 1.0 3.0 0.00 0.00 0.00 84 1012.7
20260509081004 57 289 1.0 4.0 0.00 0.00 0.00 84 1012.9
20260509080503 57 269 2.0 5.0 0.00 0.00 0.00 84 1013.0
20260509080004 56 259 3.0 7.0 0.00 0.00 0.00 85 1013.0
20260509075504 56 266 3.0 7.0 0.00 0.00 0.00 86 1012.9
20260509075004 56 284 2.0 6.0 0.00 0.00 0.00 88 1012.9
20260509074503 56 285 2.0 4.0 0.00 0.00 0.00 89 1012.9
20260509074003 56 279 3.0 6.0 0.00 0.00 0.00 89 1012.8
20260509073713 56 276 3.0 6.0 0.00 0.00 0.00 90 1012.9
20260509073214 55 273 2.0 6.0 0.00 0.00 0.00 92 1012.9
20260509072503 55 272 2.0 3.0 0.00 0.00 0.00 94 1013.0
20260509072003 54 263 2.0 3.0 0.00 0.00 0.00 95 1013.0
20260509071504 53 262 2.0 3.0 0.00 0.00 0.00 96 1013.1
20260509071003 53 261 2.0 3.0 0.00 0.00 0.00 97 1013.1
20260509070503 52 261 2.0 3.0 0.00 0.00 0.00 97 1013.2
20260509070004 52 265 1.0 3.0 0.00 0.00 0.00 97 1013.2
20260509065504 52 277 0.0 3.0 0.00 0.00 0.00 97 1013.2
20260509065003 51 277 0.0 1.0 0.00 0.00 0.00 97 1013.3
20260509064503 51 277 1.0 3.0 0.00 0.00 0.00 97 1013.3
20260509064003 50 277 1.0 3.0 0.00 0.00 0.00 97 1013.3
20260509063504 50 277 2.0 4.0 0.00 0.00 0.00 97 1013.3
20260509063214 50 275 2.0 4.0 0.00 0.00 0.00 97 1013.2
20260509062503 49 280 2.0 4.0 0.00 0.00 0.00 97 1013.2
20260509062003 49 294 2.0 3.0 0.00 0.00 0.00 97 1013.3
20260509061713 48 298 1.0 3.0 0.00 0.00 0.00 97 1013.3
20260509061003 48 289 2.0 4.0 0.00 0.00 0.00 97 1013.3
20260509060503 48 287 2.0 4.0 0.00 0.00 0.00 97 1013.5
20260509060005 47 287 2.0 4.0 0.00 0.00 0.00 97 1013.5
20260509055504 47 282 1.0 3.0 0.00 0.00 0.00 97 1013.5
20260509055003 47 276 0.0 2.0 0.00 0.00 0.00 97 1013.5
20260509054713 47 276 0.0 2.0 0.00 0.00 0.00 97 1013.4
20260509054003 47 276 0.0 2.0 0.00 0.00 0.00 97 1013.4